Regional Weather Roundup
Issued by NWS Jackson, KY

Home | Current Version | Previous Version | Graphics & Text | Print | Product List | Glossary On
Versions: 1 2 3 4 5 6 7 8 9 10 11 12 13 14 15 16 17 18 19 20 21 22 23 24 25 26 27 28 29 30 31 32 33 34 35 36 37 38 39 40 41 42 43 44 45 46 47 48 49 50
000
ASUS43 KJKL 210510
RWRJKL

EAST KENTUCKY HOURLY WEATHER ROUNDUP
NATIONAL WEATHER SERVICE JACKSON KY
100 AM EDT SAT APR 21 2018

NOTE: "FAIR" INDICATES FEW OR NO CLOUDS BELOW 12,000 FEET WITH
NO SIGNIFICANT WEATHER AND/OR OBSTRUCTIONS TO VISIBILITY.

* THESE REPORTS ARE NOT UNDER NWS QUALITY CONTROL AND MAY NOT
  REPORT WEATHER SUCH AS PRECIPITATION AND FOG.

KYZ079-080-083-085-087-088-110-112-115-119-120-210600
...EASTERN KENTUCKY...

CITY           SKY/WX    TMP DP  RH WIND       PRES   REMARKS
JACKSON          N/A     49  21  33 NE6       30.38S
LONDON           N/A     45  27  49 N7        30.36S
SOMERSET*        N/A     46  27  46 E5        30.37S
MONTICELLO*      N/A     45  29  53 CALM      30.37S
WILLIAMSBURG*    N/A     46  23  39 NE5       30.35S
MIDDLESBORO*     N/A     40  33  75 CALM      30.36S
HARLAN APT*      N/A     44  26  48 CALM      30.36F
PIKE CO APT*     N/A     48  21  34 E6        30.38S
BIG SANDY APT*   N/A     45  21  38 E3        30.39S
MOREHEAD APT*    N/A     48  19  32 NE7       30.41S
ASHLAND*         N/A     40  33  76 CALM      30.42S
$$

KYZ035-036-041-042-044-050-067-078-099-210600
...CENTRAL KENTUCKY...

CITY           SKY/WX    TMP DP  RH WIND       PRES   REMARKS
MT STERLING*     N/A     43  28  56 E5        30.41R
FLEMING/MASON*   N/A     42  25  51 E6        30.41F
DANVILLE*        N/A     41  30  65 CALM      30.39S
LEXINGTON        N/A     47  27  45 NE12      30.39S
FRANKFORT        N/A     48  26  42 NE6       30.38R
LOUISVILLE       N/A     51  26  37 E6        30.38R
GLASGOW*         N/A     47  30  51 NE7       30.35R
BOWLING GREEN    N/A     47  31  53 NE6       30.35R
$$

KYZ091>093-OHZ055-061-077-WVZ005-015-034-035-042-210600
...SOUTHERN OHIO/WEST VIRGINIA...

CITY           SKY/WX    TMP DP  RH WIND       PRES   REMARKS
COVINGTON        N/A     48  26  42 E8        30.40S
COLUMBUS         N/A     40  22  48 NE6       30.44S
DAYTON           N/A     41  27  57 E5        30.44R
WILMINGTON       N/A     42  30  62 NE8       30.42S
HUNTINGTON       N/A     46  27  47 NE5       30.41R
CHARLESTON       N/A     39  29  67 CALM      30.41R
PINEVILLE*       N/A     34  28  77 MISG        N/A
BECKLEY          N/A     37  19  48 CALM      30.38R
BLUEFIELD        N/A     40  14  34 CALM      30.39R
LOGAN CO APT*    N/A     45  19  36 CALM      30.39R
$$

VAZ002-007-008-TNZ017-027-036-066-071-210600
...SOUTHWEST VIRGINIA/EAST TENNESSEE...

CITY           SKY/WX    TMP DP  RH WIND       PRES   REMARKS
WISE*            N/A     43  21  42 NE5       30.38S
JONESVILLE*      N/A     37  32  81 CALM      30.38S
ABINGDON*        N/A     46  21  36 E5        30.37R
BRISTOL          N/A     42  27  55 N3        30.36R
MORRISTOWN*    CLEAR     48  30  49 E5        30.33R
SEVIERVILLE*   CLEAR     41  36  81 CALM      30.32S
KNOXVILLE        N/A     49  34  56 NE8       30.30R
LAFOLLETTE*    CLEAR     41  32  70 CALM      30.37S
OAK RIDGE        N/A     50  31  48 CALM      30.33R
CROSSVILLE       N/A     47  26  44 NE6       30.32S
NASHVILLE        N/A     51  30  44 NE6       30.33R
$$

...KEY TO REMARKS...
VSB - VISIBILITY IN MILES
WCI - WIND CHILL INDEX
HX  - HEAT INDEX

$$



USA.gov is the U.S. government's official web portal to all federal, state and local government web resources and services.